SL-16 DEB, 22579

Orbit data source: Space-Track

SL-16 DEB, 22579 is space debris in LEO originally from a launch on Fri, 26 Mar 1993 UTC launched from the Tyuratam Missile And Space Complex (TTMTR). Debris objects in space refer to the collection of defunct objects orbiting the Earth. Examples of debris include non-operational satellites, rocket bodies, and fragments generated from explosions, collisions, or faulty payload assembly.

Loading next visibility...
Identifier
22579, 1993-016G
Orbit
LEO
Country
Flag of CISCIS
Related business
Manufacturer
Unknown
Mission
Spacecraft
Bus & Motor
Unknown
Mass
Unknown
Launch date (UTC)
1993-03-26 (33 years ago)
Launch vehicle
Unknown
Launch site
Tyuratam Missile And Space Complex (TTMTR)
Object type
Payload
Rocket body
Debris
Shape & HBR
Unknown shape, 0.2 m
Radar Cross Section
Small (<0.1 m²)

Expand to show TLE details & history
Last TLE update: 8 hours ago

TLE from 8 hours ago
0 SL-16 DEB
1 22579U 93016G   26035.31632512  .00000445  00000-0  12937-3 0  9991
2 22579  71.0270 231.2768 0105078 282.9266 255.6793 14.46859637730188
Epoch: 2026-02-04T07:35Z
TLE epoch observation values (Epoch: 2026-02-04T07:35:30.490Z)
Latitude
2.32459°
Longitude
162.11971°
Altitude
757.318 km
Speed
7.466 km/s
True Right ascension
03h 21m 55s
True Declination
2° 18' 38"
Sunlit
Object was in daylight at epoch
Visualization orbit readout
Latitude
Unknown
Longitude
Unknown
Altitude
Unknown
Speed
Unknown
Apparent Right ascension
Unknown
Apparent Declination
Unknown
Sunlit
N/A
Visualization observer readout
Local Sidereal Time
17:12:51
Azimuth
Unknown
Elevation
Unknown
Doppler factor
Unknown
Orbital elements
Apogee altitude
808.545 km
Perigee altitude
659.084 km
Semi-major axis
7,111.952 km
Eccentricity
0.01051
Inclination
71.027°
RAAN
231.2768°
Arg. of periapsis
282.9266°
True anomaly
254.51647°
Mean anomaly
255.6793°
Eccentric anomaly
255.0975°
Mean motion
3.61876 °/min
Orbital period
99.48 mins
BSTAR
0.00012937
Loading maneuver chart data...
Computing Atmospheric mass density...
Loading historical data...
Loading historical data...
Loading historical data...
Loading historical data...
Loading historical data...
Loading historical data...
Loading historical data...

Documentation

Showing up to 5 results
|